Regional Weather Roundup
Issued by NWS

Home | Current Version | Previous Version | Graphics & Text | Print | Product List | Glossary On
Versions: 1 2 3 4 5 6 7 8 9 10 11 12 13 14 15 16 17 18 19 20 21 22 23 24 25 26 27 28 29 30 31 32 33 34 35 36 37 38 39 40 41 42 43 44 45 46 47 48 49 50
000
ASUS45 KCYS 260110
RWRWY

WYOMING REGIONAL WEATHER ROUNDUP
NATIONAL WEATHER SERVICE CHEYENNE WY
700 PM MDT MON MAY 25 2015

NOTE:  "FAIR" INDICATES FEW OR NO CLOUDS BELOW 12,000 FEET
WITH NO SIGNIFICANT WEATHER AND/OR OBSTRUCTIONS TO VISIBILITY.

WYZ001-260200-
YELLOWSTONE NATIONAL PARK

CITY           SKY/WX    TMP DP  RH WIND       PRES   REMARKS
LK YELLOWSTONE   N/A     44  41  89 W3        30.04F
W YELLOWSTONE  NOT AVBL

$$
WYZ002>013-054>058-071-098>099-260200-
NORTHERN WYOMING

CITY           SKY/WX    TMP DP  RH WIND       PRES   REMARKS
JACKSON        MOSUNNY   59  39  47 S9        29.96R
CODY           FAIR      61  43  51 CALM      29.93S
GREYBULL       FAIR      64  42  44 S5        29.88S
WORLAND        FAIR      60  49  66 SW10      29.91R
SHERIDAN       FAIR      59  50  72 S7        29.92S
BUFFALO        FAIR      55  46  71 N8        29.96R
GILLETTE       PTSUNNY   56  48  74 N10       29.93S
HULETT         LGT RAIN  52  50  93 E6        29.95S
NEWCASTLE      CLOUDY    55  48  76 SE9       29.91R

$$
WYZ014>020-022>026-101>103-260200-
CENTRAL WYOMING

CITY           SKY/WX    TMP DP  RH WIND       PRES   REMARKS
BIG PINEY      FAIR      54  37  52 W6        30.02S
PINEDALE       FAIR      54  36  50 CALM      30.03S
DUBOIS         CLOUDY    46  39  76 CALM      30.01R
LANDER         FAIR      59  45  59 E12       29.94S
RIVERTON       FAIR      58  44  60 E5        29.96S
CASPER         FAIR      59  42  53 N6        29.96R
DOUGLAS        CLOUDY    58  47  66 N8        29.94R

$$
WYZ021-027>030-104>119-260200-
SOUTHERN WYOMING

CITY           SKY/WX    TMP DP  RH WIND       PRES   REMARKS
EVANSTON       CLOUDY    47  44  90 S3        30.06F
KEMMERER       FAIR      48  41  76 SW8       30.05F
FORT BRIDGER   CLOUDY    50  43  76 W12       30.08S
ROCK SPRINGS   FAIR      47  43  86 S8        30.03F
DIXON          CLOUDY    55  43  64 NW8       30.04S THUNDER
RAWLINS        CLOUDY    49  42  77 CALM      30.03R
SARATOGA       CLOUDY    48  41  76 NW8       30.05R
LARAMIE        LGT RAIN  45  42  89 SW8       30.02R
CHEYENNE       PTSUNNY   53  41  63 N7        29.97R
TORRINGTON     LGT RAIN  53  51  93 SE5       29.90S
PINE BLUFFS    FAIR      52  45  76 NW5       29.95R

$$


USA.gov is the U.S. government's official web portal to all federal, state and local government web resources and services.